Location: Asheville, NC
(35.6000°N, 82.5500°W)
Time: 23:52:13

Vanguard 1 Rocket - Pass Details

Date: 13 March 2018
Orbit: 655 x 4222 km, 34.3° (Epoch: 19 March)

Event Time Altitude Azimuth Distance (km) Brightness Sun altitude
Rises 03:17:14 0° 282° (WNW) 7,023 11.7 -50.3°
Enters shadow 03:17:20 - 282° (WNW) 7,011 11.7 -50.3°
Exits shadow 03:57:28 13° 176° (S) 6,956 11.6 -44.4°
Drops below altitude 10° 03:59:38 10° 172° (S) 7,171 11.7 -44.0°
Sets 04:06:12 0° 162° (SSE) 7,876 12.0 -42.9°
